Time,TemperatureF,DewpointF,PressureIn,WindDirection,WindDirectionDegrees,WindSpeedMPH,WindSpeedGustMPH,Humidity,HourlyPrecipIn,Conditions,Clouds,dailyrainin,SoftwareType,DateUTC
2013-03-05 00:02:00,54.0,-99.9,30.11,North,-999,-999.0,-999.0,-999,-99.99,,,-99.99,,2013-03-05 08:02:00,
2013-03-05 00:11:00,55.0,-99.9,30.11,North,-999,-999.0,-999.0,-999,-99.99,,,-99.99,,2013-03-05 08:11:00,
2013-03-05 00:21:00,53.0,-99.9,30.11,North,-999,-999.0,-999.0,-999,-99.99,,,-99.99,,2013-03-05 08:21:00,
2013-03-05 00:32:00,54.0,-99.9,30.11,North,-999,-999.0,-999.0,-999,-99.99,,,-99.99,,2013-03-05 08:32:00,
2013-03-05 00:42:00,55.0,-99.9,30.11,North,-999,-999.0,-999.0,-999,-99.99,,,-99.99,,2013-03-05 08:42:00,
2013-03-05 00:52:00,55.0,-99.9,30.11,North,-999,-999.0,-999.0,-999,-99.99,,,-99.99,,2013-03-05 08:52:00,
2013-03-05 01:02:00,55.0,-99.9,30.11,SW,225,5.0,6.0,-999,-99.99,,,-99.99,,2013-03-05 09:02:00,
2013-03-05 01:11:00,55.0,-99.9,30.11,North,-999,-999.0,-999.0,-999,-99.99,,,-99.99,,2013-03-05 09:11:00,
2013-03-05 01:22:00,55.0,-99.9,30.11,North,-999,-999.0,-999.0,-999,-99.99,,,-99.99,,2013-03-05 09:22:00,
2013-03-05 01:32:00,55.0,-99.9,30.11,WSW,255,8.0,9.0,-999,-99.99,,,-99.99,,2013-03-05 09:32:00,
2013-03-05 01:43:00,55.0,-99.9,30.11,North,-999,-999.0,-999.0,-999,-99.99,,,-99.99,,2013-03-05 09:43:00,
2013-03-05 01:52:00,55.0,-99.9,30.11,North,-999,-999.0,-999.0,-999,-99.99,,,-99.99,,2013-03-05 09:52:00,
2013-03-05 02:02:00,55.0,-99.9,30.10,North,-999,-999.0,-999.0,-999,-99.99,,,-99.99,,2013-03-05 10:02:00,
2013-03-05 02:11:00,55.0,-99.9,30.10,North,-999,-999.0,-999.0,-999,-99.99,,,-99.99,,2013-03-05 10:11:00,
2013-03-05 02:22:00,55.0,-99.9,30.10,North,-999,-999.0,-999.0,-999,-99.99,,,-99.99,,2013-03-05 10:22:00,
2013-03-05 02:32:00,55.0,-99.9,30.10,WSW,240,4.0,4.0,-999,-99.99,,,-99.99,,2013-03-05 10:32:00,
2013-03-05 02:42:00,55.0,-99.9,30.10,North,-999,-999.0,-999.0,-999,-99.99,,,-99.99,,2013-03-05 10:42:00,
2013-03-05 02:52:00,55.0,-99.9,30.10,North,-999,-999.0,-999.0,-999,-99.99,,,-99.99,,2013-03-05 10:52:00,
2013-03-05 03:02:00,55.0,-99.9,30.10,WSW,246,4.0,6.0,-999,-99.99,,,-99.99,,2013-03-05 11:02:00,
2013-03-05 03:12:00,55.0,-99.9,30.10,North,-999,-999.0,-999.0,-999,-99.99,,,-99.99,,2013-03-05 11:12:00,
2013-03-05 03:22:00,55.0,-99.9,30.10,SW,226,6.0,6.0,-999,-99.99,,,-99.99,,2013-03-05 11:22:00,
2013-03-05 03:32:00,55.0,-99.9,30.10,North,-999,-999.0,-999.0,-999,-99.99,,,-99.99,,2013-03-05 11:32:00,
2013-03-05 03:42:00,55.0,-99.9,30.10,North,-999,-999.0,-999.0,-999,-99.99,,,-99.99,,2013-03-05 11:42:00,
2013-03-05 03:52:00,55.0,-99.9,30.10,North,-999,-999.0,-999.0,-999,-99.99,,,-99.99,,2013-03-05 11:52:00,
2013-03-05 04:03:00,55.0,-99.9,30.10,SSW,209,9.0,10.0,-999,-99.99,,,-99.99,,2013-03-05 12:03:00,
2013-03-05 04:12:00,55.0,-99.9,30.10,North,-999,-999.0,-999.0,-999,-99.99,,,-99.99,,2013-03-05 12:12:00,
2013-03-05 04:22:00,55.0,-99.9,30.10,North,-999,-999.0,-999.0,-999,-99.99,,,-99.99,,2013-03-05 12:22:00,
2013-03-05 04:32:00,55.0,-99.9,30.10,SW,224,3.0,5.0,-999,-99.99,,,-99.99,,2013-03-05 12:32:00,
2013-03-05 04:42:00,55.0,-99.9,30.10,North,-999,-999.0,-999.0,-999,-99.99,,,-99.99,,2013-03-05 12:42:00,
2013-03-05 04:53:00,55.0,-99.9,30.10,West,265,4.0,5.0,-999,-99.99,,,-99.99,,2013-03-05 12:53:00,
2013-03-05 05:02:00,55.0,-99.9,30.10,North,-999,-999.0,-999.0,-999,-99.99,,,-99.99,,2013-03-05 13:02:00,
2013-03-05 05:12:00,55.0,-99.9,30.10,North,-999,-999.0,-999.0,-999,-99.99,,,-99.99,,2013-03-05 13:12:00,
2013-03-05 05:22:00,55.0,-99.9,30.10,North,-999,-999.0,-999.0,-999,-99.99,,,-99.99,,2013-03-05 13:22:00,
2013-03-05 05:32:00,55.0,-99.9,30.10,North,-999,-999.0,-999.0,-999,-99.99,,,-99.99,,2013-03-05 13:32:00,
2013-03-05 05:42:00,55.0,-99.9,30.10,North,-999,-999.0,-999.0,-999,-99.99,,,-99.99,,2013-03-05 13:42:00,
2013-03-05 05:52:00,55.0,-99.9,30.11,North,-999,-999.0,-999.0,-999,-99.99,,,-99.99,,2013-03-05 13:52:00,
2013-03-05 06:02:00,55.0,-99.9,30.11,NW,306,3.0,4.0,-999,-99.99,,,-99.99,,2013-03-05 14:02:00,
2013-03-05 06:11:00,55.0,-99.9,30.10,North,-999,-999.0,-999.0,-999,-99.99,,,-99.99,,2013-03-05 14:11:00,
2013-03-05 06:22:00,55.0,-99.9,30.10,NW,324,1.0,2.0,-999,-99.99,,,-99.99,,2013-03-05 14:22:00,
2013-03-05 06:32:00,55.0,-99.9,30.11,North,-999,-999.0,-999.0,-999,-99.99,,,-99.99,,2013-03-05 14:32:00,
2013-03-05 06:42:00,55.0,-99.9,30.11,North,-999,-999.0,-999.0,-999,-99.99,,,-99.99,,2013-03-05 14:42:00,
2013-03-05 06:52:00,55.0,-99.9,30.10,North,-999,-999.0,-999.0,-999,-99.99,,,-99.99,,2013-03-05 14:52:00,
2013-03-05 07:02:00,55.0,-99.9,30.10,North,-999,-999.0,-999.0,-999,-99.99,,,-99.99,,2013-03-05 15:02:00,
2013-03-05 07:11:00,55.0,-99.9,30.10,North,-999,-999.0,-999.0,-999,-99.99,,,-99.99,,2013-03-05 15:11:00,
2013-03-05 07:22:00,55.0,-99.9,30.10,North,-999,-999.0,-999.0,-999,-99.99,,,-99.99,,2013-03-05 15:22:00,
2013-03-05 07:32:00,56.0,-99.9,30.10,East,80,2.0,5.0,-999,-99.99,,,-99.99,,2013-03-05 15:32:00,
2013-03-05 07:42:00,56.0,-99.9,30.11,North,-999,-999.0,-999.0,-999,-99.99,,,-99.99,,2013-03-05 15:42:00,
2013-03-05 07:52:00,56.0,-99.9,30.11,East,95,4.0,6.0,-999,-99.99,,,-99.99,,2013-03-05 15:52:00,
2013-03-05 08:02:00,56.0,-99.9,30.11,North,-999,-999.0,-999.0,-999,-99.99,,,-99.99,,2013-03-05 16:02:00,
2013-03-05 08:11:00,56.0,-99.9,30.11,North,-999,-999.0,-999.0,-999,-99.99,,,-99.99,,2013-03-05 16:11:00,
2013-03-05 08:22:00,56.0,-99.9,30.11,North,-999,-999.0,-999.0,-999,-99.99,,,-99.99,,2013-03-05 16:22:00,
2013-03-05 08:32:00,56.0,-99.9,30.11,North,-999,-999.0,-999.0,-999,-99.99,,,-99.99,,2013-03-05 16:32:00,
2013-03-05 08:42:00,56.0,-99.9,30.11,North,-999,-999.0,-999.0,-999,-99.99,,,-99.99,,2013-03-05 16:42:00,
2013-03-05 08:52:00,56.0,-99.9,30.11,North,-999,-999.0,-999.0,-999,-99.99,,,-99.99,,2013-03-05 16:52:00,
2013-03-05 09:01:00,56.0,-99.9,30.12,East,97,4.0,8.0,-999,-99.99,,,-99.99,,2013-03-05 17:01:00,
2013-03-05 09:11:00,56.0,-99.9,30.12,North,-999,-999.0,-999.0,-999,-99.99,,,-99.99,,2013-03-05 17:11:00,
2013-03-05 09:22:00,56.0,-99.9,30.12,North,-999,-999.0,-999.0,-999,-99.99,,,-99.99,,2013-03-05 17:22:00,
2013-03-05 09:32:00,56.0,-99.9,30.12,South,182,5.0,6.0,-999,-99.99,,,-99.99,,2013-03-05 17:32:00,
2013-03-05 09:42:00,56.0,-99.9,30.13,North,-999,-999.0,-999.0,-999,-99.99,,,-99.99,,2013-03-05 17:42:00,
2013-03-05 09:53:00,55.0,-99.9,30.13,North,-999,-999.0,-999.0,-999,-99.99,,,-99.99,,2013-03-05 17:53:00,
2013-03-05 10:02:00,55.0,-99.9,30.13,North,-999,-999.0,-999.0,-999,-99.99,,,-99.99,,2013-03-05 18:02:00,
2013-03-05 10:11:00,55.0,-99.9,30.13,North,-999,-999.0,-999.0,-999,-99.99,,,-99.99,,2013-03-05 18:11:00,
2013-03-05 10:22:00,55.0,-99.9,30.14,North,-999,-999.0,-999.0,-999,-99.99,,,-99.99,,2013-03-05 18:22:00,
2013-03-05 10:32:00,55.0,-99.9,30.14,WSW,243,10.0,12.0,-999,-99.99,,,-99.99,,2013-03-05 18:32:00,
2013-03-05 10:42:00,55.0,-99.9,30.14,North,-999,-999.0,-999.0,-999,-99.99,,,-99.99,,2013-03-05 18:42:00,
2013-03-05 10:53:00,55.0,-99.9,30.13,North,-999,-999.0,-999.0,-999,-99.99,,,-99.99,,2013-03-05 18:53:00,
2013-03-05 11:02:00,54.0,-99.9,30.13,WSW,244,10.0,11.0,-999,-99.99,,,-99.99,,2013-03-05 19:02:00,
2013-03-05 11:11:00,54.0,-99.9,30.13,North,-999,-999.0,-999.0,-999,-99.99,,,-99.99,,2013-03-05 19:11:00,
2013-03-05 11:22:00,54.0,-99.9,30.13,North,-999,-999.0,-999.0,-999,-99.99,,,-99.99,,2013-03-05 19:22:00,
2013-03-05 11:32:00,54.0,-99.9,30.13,North,-999,-999.0,-999.0,-999,-99.99,,,-99.99,,2013-03-05 19:32:00,
2013-03-05 11:42:00,54.0,-99.9,30.13,North,-999,-999.0,-999.0,-999,-99.99,,,-99.99,,2013-03-05 19:42:00,
2013-03-05 11:52:00,54.0,-99.9,30.12,North,-999,-999.0,-999.0,-999,-99.99,,,-99.99,,2013-03-05 19:52:00,
2013-03-05 12:01:00,55.0,-99.9,30.11,SW,235,4.0,5.0,-999,-99.99,,,-99.99,,2013-03-05 20:01:00,
2013-03-05 12:11:00,55.0,-99.9,30.11,North,-999,-999.0,-999.0,-999,-99.99,,,-99.99,,2013-03-05 20:11:00,
2013-03-05 12:22:00,55.0,-99.9,30.11,SSW,208,4.0,5.0,-999,-99.99,,,-99.99,,2013-03-05 20:22:00,
2013-03-05 12:32:00,55.0,-99.9,30.10,North,-999,-999.0,-999.0,-999,-99.99,,,-99.99,,2013-03-05 20:32:00,
2013-03-05 12:42:00,55.0,-99.9,30.10,North,-999,-999.0,-999.0,-999,-99.99,,,-99.99,,2013-03-05 20:42:00,
2013-03-05 12:52:00,55.0,-99.9,30.10,North,-999,-999.0,-999.0,-999,-99.99,,,-99.99,,2013-03-05 20:52:00,
2013-03-05 13:02:00,55.0,-99.9,30.10,North,-999,-999.0,-999.0,-999,-99.99,,,-99.99,,2013-03-05 21:02:00,
2013-03-05 13:11:00,56.0,-99.9,30.09,North,-999,-999.0,-999.0,-999,-99.99,,,-99.99,,2013-03-05 21:11:00,
2013-03-05 13:22:00,55.0,-99.9,30.09,North,-999,-999.0,-999.0,-999,-99.99,,,-99.99,,2013-03-05 21:22:00,
2013-03-05 13:32:00,56.0,-99.9,30.09,SW,234,9.0,10.0,-999,-99.99,,,-99.99,,2013-03-05 21:32:00,
2013-03-05 13:42:00,55.0,-99.9,30.08,North,-999,-999.0,-999.0,-999,-99.99,,,-99.99,,2013-03-05 21:42:00,
2013-03-05 13:52:00,55.0,-99.9,30.08,WSW,243,10.0,11.0,-999,-99.99,,,-99.99,,2013-03-05 21:52:00,
2013-03-05 14:01:00,55.0,-99.9,30.08,North,-999,-999.0,-999.0,-999,-99.99,,,-99.99,,2013-03-05 22:01:00,
2013-03-05 14:12:00,55.0,-99.9,30.07,North,-999,-999.0,-999.0,-999,-99.99,,,-99.99,,2013-03-05 22:12:00,
2013-03-05 14:22:00,55.0,-99.9,30.07,North,-999,-999.0,-999.0,-999,-99.99,,,-99.99,,2013-03-05 22:22:00,
2013-03-05 14:32:00,55.0,-99.9,30.07,North,-999,-999.0,-999.0,-999,-99.99,,,-99.99,,2013-03-05 22:32:00,
2013-03-05 14:42:00,55.0,-99.9,30.06,North,-999,-999.0,-999.0,-999,-99.99,,,-99.99,,2013-03-05 22:42:00,
2013-03-05 14:52:00,55.0,-99.9,30.06,North,-999,-999.0,-999.0,-999,-99.99,,,-99.99,,2013-03-05 22:52:00,
2013-03-05 15:01:00,55.0,-99.9,30.06,West,262,17.0,17.0,-999,-99.99,,,-99.99,,2013-03-05 23:01:00,
2013-03-05 15:11:00,55.0,-99.9,30.06,North,-999,-999.0,-999.0,-999,-99.99,,,-99.99,,2013-03-05 23:11:00,
2013-03-05 15:22:00,55.0,-99.9,30.06,North,-999,-999.0,-999.0,-999,-99.99,,,-99.99,,2013-03-05 23:22:00,
2013-03-05 15:32:00,55.0,-99.9,30.06,West,262,15.0,18.0,-999,-99.99,,,-99.99,,2013-03-05 23:32:00,
2013-03-05 15:42:00,55.0,-99.9,30.06,North,-999,-999.0,-999.0,-999,-99.99,,,-99.99,,2013-03-05 23:42:00,
2013-03-05 15:53:00,55.0,-99.9,30.06,West,259,15.0,16.0,-999,-99.99,,,-99.99,,2013-03-05 23:53:00,
2013-03-05 16:02:00,55.0,-99.9,30.06,North,-999,-999.0,-999.0,-999,-99.99,,,-99.99,,2013-03-06 00:02:00,
2013-03-05 16:11:00,55.0,-99.9,30.06,North,-999,-999.0,-999.0,-999,-99.99,,,-99.99,,2013-03-06 00:11:00,
2013-03-05 16:22:00,55.0,-99.9,30.06,North,-999,-999.0,-999.0,-999,-99.99,,,-99.99,,2013-03-06 00:22:00,
2013-03-05 16:32:00,55.0,-99.9,30.06,West,260,12.0,14.0,-999,-99.99,,,-99.99,,2013-03-06 00:32:00,
2013-03-05 16:42:00,55.0,-99.9,30.06,North,-999,-999.0,-999.0,-999,-99.99,,,-99.99,,2013-03-06 00:42:00,
2013-03-05 16:52:00,55.0,-99.9,30.06,North,-999,-999.0,-999.0,-999,-99.99,,,-99.99,,2013-03-06 00:52:00,
2013-03-05 17:02:00,55.0,-99.9,30.06,WSW,257,11.0,13.0,-999,-99.99,,,-99.99,,2013-03-06 01:02:00,
2013-03-05 17:11:00,55.0,-99.9,30.06,North,-999,-999.0,-999.0,-999,-99.99,,,-99.99,,2013-03-06 01:11:00,
2013-03-05 17:22:00,55.0,-99.9,30.06,WSW,254,11.0,13.0,-999,-99.99,,,-99.99,,2013-03-06 01:22:00,
2013-03-05 17:32:00,54.0,-99.9,30.06,North,-999,-999.0,-999.0,-999,-99.99,,,-99.99,,2013-03-06 01:32:00,
2013-03-05 17:42:00,54.0,-99.9,30.06,North,-999,-999.0,-999.0,-999,-99.99,,,-99.99,,2013-03-06 01:42:00,
2013-03-05 17:52:00,54.0,-99.9,30.07,North,-999,-999.0,-999.0,-999,-99.99,,,-99.99,,2013-03-06 01:52:00,
2013-03-05 18:01:00,54.0,-99.9,30.07,WSW,257,9.0,11.0,-999,-99.99,,,-99.99,,2013-03-06 02:01:00,
2013-03-05 18:11:00,55.0,-99.9,30.07,North,-999,-999.0,-999.0,-999,-99.99,,,-99.99,,2013-03-06 02:11:00,
2013-03-05 18:22:00,54.0,-99.9,30.07,North,-999,-999.0,-999.0,-999,-99.99,,,-99.99,,2013-03-06 02:22:00,
2013-03-05 18:32:00,55.0,-99.9,30.07,SW,227,6.0,7.0,-999,-99.99,,,-99.99,,2013-03-06 02:32:00,
2013-03-05 18:42:00,54.0,-99.9,30.07,North,-999,-999.0,-999.0,-999,-99.99,,,-99.99,,2013-03-06 02:42:00,
2013-03-05 18:52:00,55.0,-99.9,30.07,WSW,249,6.0,7.0,-999,-99.99,,,-99.99,,2013-03-06 02:52:00,
2013-03-05 19:02:00,55.0,-99.9,30.08,North,-999,-999.0,-999.0,-999,-99.99,,,-99.99,,2013-03-06 03:02:00,
2013-03-05 19:11:00,55.0,-99.9,30.09,North,-999,-999.0,-999.0,-999,-99.99,,,-99.99,,2013-03-06 03:11:00,
2013-03-05 19:22:00,55.0,-99.9,30.09,North,-999,-999.0,-999.0,-999,-99.99,,,-99.99,,2013-03-06 03:22:00,
2013-03-05 19:32:00,55.0,-99.9,30.09,North,-999,-999.0,-999.0,-999,-99.99,,,-99.99,,2013-03-06 03:32:00,
2013-03-05 19:42:00,55.0,-99.9,30.09,North,-999,-999.0,-999.0,-999,-99.99,,,-99.99,,2013-03-06 03:42:00,
2013-03-05 19:53:00,55.0,-99.9,30.09,North,-999,-999.0,-999.0,-999,-99.99,,,-99.99,,2013-03-06 03:53:00,
2013-03-05 20:02:00,55.0,-99.9,30.09,WSW,254,8.0,9.0,-999,-99.99,,,-99.99,,2013-03-06 04:02:00,
2013-03-05 20:11:00,55.0,-99.9,30.09,North,-999,-999.0,-999.0,-999,-99.99,,,-99.99,,2013-03-06 04:11:00,
2013-03-05 20:22:00,55.0,-99.9,30.09,WSW,257,6.0,9.0,-999,-99.99,,,-99.99,,2013-03-06 04:22:00,
2013-03-05 20:32:00,55.0,-99.9,30.09,North,-999,-999.0,-999.0,-999,-99.99,,,-99.99,,2013-03-06 04:32:00,
2013-03-05 20:42:00,55.0,-99.9,30.09,North,-999,-999.0,-999.0,-999,-99.99,,,-99.99,,2013-03-06 04:42:00,
2013-03-05 20:52:00,55.0,-99.9,30.10,North,-999,-999.0,-999.0,-999,-99.99,,,-99.99,,2013-03-06 04:52:00,
2013-03-05 21:02:00,55.0,-99.9,30.10,North,-999,-999.0,-999.0,-999,-99.99,,,-99.99,,2013-03-06 05:02:00,
2013-03-05 21:12:00,54.0,-99.9,30.10,North,-999,-999.0,-999.0,-999,-99.99,,,-99.99,,2013-03-06 05:12:00,
2013-03-05 21:23:00,54.0,-99.9,30.10,North,-999,-999.0,-999.0,-999,-99.99,,,-99.99,,2013-03-06 05:23:00,
2013-03-05 21:32:00,54.0,-99.9,30.11,WSW,240,14.0,16.0,-999,-99.99,,,-99.99,,2013-03-06 05:32:00,
2013-03-05 21:42:00,54.0,-99.9,30.11,North,-999,-999.0,-999.0,-999,-99.99,,,-99.99,,2013-03-06 05:42:00,
2013-03-05 21:52:00,53.0,-99.9,30.11,North,-999,-999.0,-999.0,-999,-99.99,,,-99.99,,2013-03-06 05:52:00,
2013-03-05 22:02:00,54.0,-99.9,30.12,WSW,251,14.0,16.0,-999,-99.99,,,-99.99,,2013-03-06 06:02:00,
2013-03-05 22:12:00,53.0,-99.9,30.12,North,-999,-999.0,-999.0,-999,-99.99,,,-99.99,,2013-03-06 06:12:00,
2013-03-05 22:22:00,53.0,-99.9,30.12,WSW,247,15.0,17.0,-999,-99.99,,,-99.99,,2013-03-06 06:22:00,
2013-03-05 22:32:00,53.0,-99.9,30.12,North,-999,-999.0,-999.0,-999,-99.99,,,-99.99,,2013-03-06 06:32:00,
2013-03-05 22:42:00,53.0,-99.9,30.13,North,-999,-999.0,-999.0,-999,-99.99,,,-99.99,,2013-03-06 06:42:00,
2013-03-05 22:52:00,53.0,-99.9,30.13,North,-999,-999.0,-999.0,-999,-99.99,,,-99.99,,2013-03-06 06:52:00,
2013-03-05 23:02:00,53.0,-99.9,30.13,WSW,244,13.0,17.0,-999,-99.99,,,-99.99,,2013-03-06 07:02:00,
2013-03-05 23:11:00,53.0,-99.9,30.13,North,-999,-999.0,-999.0,-999,-99.99,,,-99.99,,2013-03-06 07:11:00,
2013-03-05 23:22:00,53.0,-99.9,30.13,North,-999,-999.0,-999.0,-999,-99.99,,,-99.99,,2013-03-06 07:22:00,
2013-03-05 23:32:00,53.0,-99.9,30.13,WSW,242,13.0,14.0,-999,-99.99,,,-99.99,,2013-03-06 07:32:00,
2013-03-05 23:42:00,53.0,-99.9,30.14,North,-999,-999.0,-999.0,-999,-99.99,,,-99.99,,2013-03-06 07:42:00,
2013-03-05 23:52:00,53.0,-99.9,30.14,WSW,250,13.0,15.0,-999,-99.99,,,-99.99,,2013-03-06 07:52:00,